Location: Briarwood
(39.0812°N, 76.8511°W)
Time: 23:03:48
(UTC+00:00)

ATLAS CENTAUR R/B - Pass Details

Date: 10 September 2024
Orbit: 194 x 1589 km, 57.1° (Epoch: 06 October)

Event Time Altitude Azimuth Distance (km) Brightness Sun altitude
Rises 23:42:56 0° 318° (NW) 2,860 6.4 -4.7°
Reaches altitude 10° 23:44:49 10° 319° (NW) 2,145 5.7 -5.0°
Maximum altitude 23:49:50 84° 48° (NE) 942 3.0 -6.0°
Drops below altitude 10° 23:57:47 10° 137° (SE) 3,318 5.3 -7.5°
Enters shadow 00:01:05 - 138° (SE) 4,471 5.9 -8.1°
